Torna al catalogo

STARLINK-34024

AttivoComunicazioniVLEO
NORAD 64031·PAYLOAD·🇺🇸 United States

Lanciato May 16, 2025 da Vandenberg Space Force Base

Loading…

Prossimi Passaggi (prossime 24 ore)

TLE

AggiornatoSource: CelesTrak SupGP

Epoca: Sep 14, 2026, 21:10 UTC

1 64031C 25102K   26257.88243056 -.00034138  00000+0 -11577-2 0  2572
2 64031  70.0011 355.9400 0003342 273.4673 272.8296 15.30422661    12

Traccia STARLINK-34024 in tempo reale con AllMySat

Download on the App Store